1488945600.84,52156,8.19,73210.5,-10.27,-12.47,-12.93,0,*68
1488945602.09,52157,8.19,73210.8,-10.27,-12.47,-12.79,0,*6D
1488945603.35,52158,8.19,73208.3,-10.29,-12.43,-12.83,0,*6D
1488945604.59,52159,8.19,73208.3,-10.27,-12.47,-12.79,0,*63
1488945605.86,52160,8.19,73208.5,-10.29,-12.43,-12.83,0,*66
1488945607.09,52161,8.19,73208.8,-10.27,-12.39,-12.79,0,*61
1488945608.36,52162,8.19,73210.5,-10.29,-12.43,-12.79,0,*61
1488945609.63,52163,8.19,73210.3,-10.29,-12.43,-12.83,0,*65
1488945610.87,52164,8.19,73210.5,-10.27,-12.47,-12.75,0,*61
1488945612.11,52165,8.19,73212.3,-10.27,-12.47,-12.79,0,*6C
1488945613.38,52166,8.19,73206.8,-10.27,-12.35,-12.75,0,*66
1488945614.62,52167,8.19,73210.5,-10.27,-12.39,-12.75,0,*6B
1488945615.88,52168,8.19,73210.3,-10.29,-12.39,-12.79,0,*66
1488945617.12,52169,8.19,73208.8,-10.27,-12.39,-12.75,0,*65
1488945618.36,52170,8.19,73212.3,-10.27,-12.39,-12.75,0,*6D
1488945619.63,52171,8.19,73212.0,-10.29,-12.39,-12.71,0,*66
1488945620.9,52172,8.19,73210.5,-10.27,-12.35,-12.75,0,*63
1488945622.17,52173,8.19,73210.0,-10.25,-12.39,-12.75,0,*6C
1488945623.45,52174,8.19,73210.8,-10.25,-12.35,-12.65,0,*66
1488945624.71,52175,8.19,73210.8,-10.25,-12.39,-12.61,0,*6F
1488945625.98,52176,8.19,73208.5,-10.27,-12.35,-12.61,0,*62
1488945627.24,52177,8.19,73208.5,-10.25,-12.39,-12.61,0,*6D
1488945628.53,52178,8.19,73210.5,-10.25,-12.35,-12.61,0,*6E
1488945629.79,52179,8.19,73210.8,-10.25,-12.39,-12.65,0,*67
1488945631.03,52180,8.19,73210.3,-10.23,-12.29,-12.61,0,*62
1488945632.29,52181,8.19,73210.8,-10.25,-12.39,-12.61,0,*64
1488945633.55,52182,8.19,73212.0,-10.25,-12.39,-12.65,0,*63
1488945634.78,52183,8.19,73210.5,-10.27,-12.39,-12.61,0,*64
1488945636.05,52184,8.19,73210.3,-10.23,-12.35,-12.57,0,*6E
1488945637.28,52185,8.19,73210.3,-10.23,-12.39,-12.65,0,*62
1488945638.54,52186,8.19,73210.5,-10.25,-12.47,-12.65,0,*6E
1488945639.75,52187,8.19,73210.8,-10.23,-12.43,-12.47,0,*6D
1488945641.01,52188,8.19,73208.0,-10.23,-12.35,-12.61,0,*67
1488945642.25,52189,8.13,73206.0,-10.23,-12.29,-12.57,0,*6E
1488945643.54,52190,8.19,73210.0,-10.25,-12.35,-12.57,0,*6D
1488945644.81,52191,8.19,73214.5,-10.25,-12.39,-12.61,0,*65
1488945646.07,52192,8.19,73208.3,-10.23,-12.35,-12.57,0,*69
1488945647.33,52193,8.19,73210.5,-10.25,-12.39,-12.61,0,*67
1488945648.59,52194,8.13,73204.5,-10.25,-12.39,-12.65,0,*64
1488945649.85,52195,8.19,73206.5,-10.23,-12.35,-12.57,0,*6E
1488945651.09,52196,8.19,73210.5,-10.23,-12.39,-12.61,0,*64
1488945652.3,52197,8.19,73212.3,-10.23,-12.29,-12.43,0,*64
1488945653.57,52198,8.19,73208.0,-10.23,-12.35,-12.57,0,*63
1488945654.86,52199,8.19,73208.8,-10.25,-12.35,-12.61,0,*61
1488945656.1,52200,8.19,73212.0,-10.23,-12.29,-12.57,0,*6C
1488945657.34,52201,8.19,73210.5,-10.23,-12.35,-12.47,0,*61
1488945658.58,52202,8.19,73212.0,-10.23,-12.35,-12.47,0,*62
1488945659.8,52203,8.19,73210.5,-10.23,-12.21,-12.43,0,*62
1488945661.01,52204,8.19,73212.5,-10.23,-12.29,-12.47,0,*69
1488945662.23,52205,8.19,73210.8,-10.23,-12.29,-12.47,0,*68
1488945663.5,52206,8.19,73210.5,-10.25,-12.39,-12.53,0,*69
1488945664.73,52207,8.19,73212.5,-10.23,-12.35,-12.43,0,*63
1488945666.0,52208,8.19,73212.3,-10.25,-12.39,-12.53,0,*67
1488945667.22,52209,8.19,73212.8,-10.23,-12.29,-12.43,0,*60
1488945668.46,52210,8.19,73210.0,-10.23,-12.35,-12.43,0,*65
1488945669.72,52211,8.19,73210.8,-10.25,-12.39,-12.53,0,*6F
1488945670.99,52212,8.19,73210.8,-10.21,-12.35,-12.43,0,*65
1488945672.2,52213,8.19,73210.0,-10.23,-12.29,-12.47,0,*6F
1488945673.44,52214,8.19,73212.0,-10.23,-12.35,-12.47,0,*65
1488945674.68,52215,8.19,73210.5,-10.23,-12.35,-12.47,0,*64
1488945675.95,52216,8.19,73210.0,-10.21,-12.35,-12.43,0,*61
1488945677.22,52217,8.19,73210.3,-10.21,-12.35,-12.47,0,*64
1488945678.46,52218,8.19,73214.3,-10.21,-12.29,-12.47,0,*66
1488945679.68,52219,8.19,73210.3,-10.23,-12.29,-12.43,0,*61
1488945680.92,52220,8.19,73210.3,-10.21,-12.29,-12.47,0,*6D
1488945682.16,52221,8.19,73210.0,-10.21,-12.29,-12.47,0,*6C
1488945683.41,52222,8.19,73210.0,-10.21,-12.29,-12.43,0,*6B
1488945684.65,52223,8.19,73212.5,-10.21,-12.29,-12.47,0,*6E
1488945685.92,52224,8.19,73210.0,-10.21,-12.35,-12.47,0,*64
1488945687.18,52225,8.19,73210.3,-10.21,-12.35,-12.47,0,*65
1488945688.45,52226,8.19,73214.3,-10.21,-12.35,-12.47,0,*66
1488945689.72,52227,8.19,73210.3,-10.21,-12.35,-12.47,0,*67
1488945690.95,52228,8.19,73208.8,-10.21,-12.43,-12.43,0,*6D
1488945692.2,52229,8.19,73212.8,-10.21,-12.29,-12.43,0,*60
1488945693.46,52230,8.19,73210.3,-10.21,-12.35,-12.47,0,*61
1488945694.73,52231,8.19,73210.0,-10.21,-12.35,-12.47,0,*60
1488945695.95,52232,8.13,73210.0,-10.19,-12.29,-12.39,0,*6C
1488945697.17,52233,8.19,73208.3,-10.19,-12.29,-12.43,0,*60
1488945698.43,52234,8.19,73214.8,-10.21,-12.35,-12.43,0,*61
1488945699.7,52235,8.19,73210.5,-10.21,-12.35,-12.47,0,*64
1488945700.92,52236,8.19,73212.5,-10.19,-12.29,-12.39,0,*68
1488945702.19,52237,8.13,73208.5,-10.21,-12.35,-12.43,0,*62
1488945703.4,52238,8.19,73212.8,-10.19,-12.43,-12.47,0,*63
1488945704.64,52239,8.19,73212.5,-10.21,-12.43,-12.43,0,*6D
1488945705.88,52240,8.19,73212.3,-10.19,-12.35,-12.39,0,*64
1488945707.12,52241,8.19,73210.3,-10.19,-12.39,-12.53,0,*65
1488945708.38,52242,8.19,73214.0,-10.21,-12.43,-12.57,0,*64
1488945709.6,52243,8.19,73212.8,-10.19,-12.39,-12.43,0,*66
1488945710.83,52244,8.19,73210.3,-10.21,-12.43,-12.47,0,*63
1488945712.05,52245,8.19,73210.3,-10.19,-12.47,-12.47,0,*6D
1488945713.29,52246,8.13,73208.5,-10.19,-12.43,-12.57,0,*6B
1488945714.5,52247,8.19,73210.0,-10.19,-12.39,-12.47,0,*66
1488945715.71,52248,8.19,73214.5,-10.19,-12.39,-12.47,0,*69
1488945716.95,52249,8.13,73210.3,-10.19,-12.43,-12.57,0,*64
1488945718.19,52250,8.19,73208.8,-10.19,-12.43,-12.53,0,*68
1488945719.43,52251,8.19,73208.5,-10.19,-12.39,-12.53,0,*64
1488945720.67,52252,8.19,73214.3,-10.19,-12.39,-12.53,0,*67
1488945721.93,52253,8.13,73210.5,-10.21,-12.43,-12.61,0,*61
1488945723.17,52254,8.19,73210.3,-10.19,-12.43,-12.57,0,*68
1488945724.41,52255,8.19,73214.0,-10.19,-12.43,-12.53,0,*6D
1488945725.65,52256,8.19,73212.0,-10.19,-12.43,-12.53,0,*6E
1488945726.89,52257,8.13,73210.8,-10.19,-12.39,-12.53,0,*62
1488945728.13,52258,8.19,73212.3,-10.19,-12.39,-12.53,0,*6D
1488945729.35,52259,8.13,73208.8,-10.19,-12.43,-12.43,0,*60
1488945730.59,52260,8.13,73210.8,-10.19,-12.39,-12.53,0,*66
1488945731.83,52261,8.19,73212.8,-10.19,-12.39,-12.53,0,*67
1488945733.07,52262,8.19,73212.5,-10.19,-12.43,-12.53,0,*69
1488945734.3,52263,8.19,73212.0,-10.19,-12.43,-12.57,0,*6C
1488945735.54,52264,8.13,73208.3,-10.19,-12.43,-12.53,0,*6F
1488945736.78,52265,8.19,73214.0,-10.19,-12.39,-12.57,0,*67
1488945738.02,52266,8.19,73212.8,-10.19,-12.43,-12.57,0,*69
1488945739.28,52267,8.19,73214.5,-10.21,-12.47,-12.57,0,*67
1488945740.52,52268,8.19,73212.3,-10.19,-12.39,-12.57,0,*6A
1488945741.73,52269,8.19,73212.5,-10.19,-12.43,-12.43,0,*63
1488945742.96,52270,8.13,73210.3,-10.15,-12.39,-12.57,0,*6F
1488945744.19,52271,8.19,73212.0,-10.15,-12.43,-12.57,0,*63
1488945745.43,52272,8.19,73214.3,-10.15,-12.43,-12.53,0,*64
1488945746.69,52273,8.19,73214.8,-10.15,-12.35,-12.53,0,*64
1488945747.98,52274,8.19,73212.0,-10.13,-12.35,-12.53,0,*65
1488945749.22,52275,8.13,73210.5,-10.15,-12.43,-12.57,0,*67
1488945750.45,52276,8.13,73210.3,-10.15,-12.43,-12.57,0,*64
1488945751.68,52277,8.19,73212.8,-10.15,-12.43,-12.57,0,*65
1488945752.91,52278,8.13,73212.5,-10.15,-12.43,-12.57,0,*6A
1488945754.14,52279,8.19,73212.3,-10.15,-12.39,-12.57,0,*66
1488945755.37,52280,8.19,73212.8,-10.15,-12.43,-12.53,0,*69
1488945756.61,52281,8.19,73212.8,-10.15,-12.39,-12.57,0,*61
1488945757.84,52282,8.13,73210.0,-10.15,-12.43,-12.57,0,*6F
1488945759.07,52283,8.19,73214.8,-10.15,-12.43,-12.53,0,*6A
1488945760.31,52284,8.13,73208.8,-10.15,-12.39,-12.53,0,*60
1488945761.53,52285,8.13,73212.5,-10.15,-12.39,-12.65,0,*64
1488945762.76,52286,8.19,73214.3,-10.15,-12.43,-12.57,0,*6B
1488945764.05,52287,8.19,73212.8,-10.13,-12.35,-12.61,0,*68
1488945765.28,52288,8.13,73210.5,-10.15,-12.39,-12.65,0,*69
1488945766.51,52289,8.19,73214.0,-10.15,-12.43,-12.65,0,*65
1488945767.74,52290,8.19,73214.8,-10.15,-12.43,-12.65,0,*6D
1488945768.96,52291,8.19,73212.5,-10.15,-12.43,-12.65,0,*6C
1488945770.22,52292,8.19,73212.3,-10.13,-12.39,-12.61,0,*60
1488945771.45,52293,8.19,73212.8,-10.15,-12.39,-12.65,0,*63
1488945772.71,52294,8.13,73208.3,-10.13,-12.39,-12.61,0,*66
1488945773.97,52295,8.13,73208.5,-10.13,-12.39,-12.61,0,*67
1488945775.24,52296,8.19,73212.8,-10.13,-12.39,-12.61,0,*64
1488945776.47,52297,8.19,73214.5,-10.15,-12.43,-12.57,0,*6B
1488945777.69,52298,8.19,73216.8,-10.15,-12.43,-12.65,0,*65
1488945778.92,52299,8.19,73214.0,-10.15,-12.39,-12.65,0,*69
1488945780.18,52300,8.13,73208.8,-10.13,-12.39,-12.65,0,*6E
1488945781.44,52301,8.19,73214.0,-10.15,-12.53,-12.65,0,*65
1488945782.7,52302,8.19,73214.3,-10.13,-12.47,-12.61,0,*61
1488945783.94,52303,8.19,73216.8,-10.13,-12.39,-12.47,0,*6D
1488945785.2,52304,8.13,73212.5,-10.13,-12.39,-12.61,0,*6E
1488945786.43,52305,8.19,73214.3,-10.15,-12.43,-12.65,0,*60
1488945787.68,52306,8.19,73212.0,-10.15,-12.53,-12.65,0,*62
1488945788.95,52307,8.19,73214.0,-10.13,-12.47,-12.61,0,*64
1488945790.21,52308,8.13,73210.5,-10.13,-12.47,-12.61,0,*6B
1488945791.47,52309,8.19,73212.3,-10.15,-12.57,-12.65,0,*69
1488945792.73,52310,8.19,73214.8,-10.15,-12.53,-12.71,0,*60
1488945794.0,52311,8.19,73214.0,-10.15,-12.53,-12.71,0,*61
1488945795.26,52312,8.19,73214.8,-10.15,-12.57,-12.65,0,*63
1488945796.49,52313,8.19,73212.8,-10.15,-12.43,-12.65,0,*67
1488945797.71,52314,8.19,73214.3,-10.15,-12.43,-12.65,0,*60
1488945798.94,52315,8.13,73210.5,-10.15,-12.43,-12.65,0,*61
1488945800.17,52316,8.13,73212.5,-10.15,-12.43,-12.65,0,*62
1488945801.41,52317,8.13,73210.8,-10.15,-12.43,-12.71,0,*66
1488945802.67,52318,8.19,73214.0,-10.13,-12.39,-12.61,0,*63
1488945803.96,52319,8.13,73212.5,-10.13,-12.53,-12.53,0,*6F
1488945805.22,52320,8.19,73214.0,-10.13,-12.47,-12.65,0,*65
1488945806.48,52321,8.13,73214.5,-10.15,-12.53,-12.65,0,*67
1488945807.74,52322,8.19,73214.0,-10.15,-12.53,-12.65,0,*64
1488945809.0,52323,8.13,73210.8,-10.13,-12.39,-12.61,0,*6B
1488945810.26,52324,8.13,73212.8,-10.13,-12.47,-12.61,0,*65
1488945811.52,52325,8.13,73212.0,-10.13,-12.47,-12.65,0,*60
1488945812.79,52326,8.19,73212.3,-10.13,-12.47,-12.61,0,*67
1488945814.03,52327,8.19,73212.0,-10.09,-12.43,-12.57,0,*6C
1488945815.27,52328,8.19,73212.3,-10.09,-12.43,-12.57,0,*63
1488945816.51,52329,8.13,73212.3,-10.09,-12.43,-12.61,0,*67
1488945817.77,52330,8.13,73212.3,-10.13,-12.47,-12.61,0,*60
1488945819.06,52331,8.19,73214.3,-10.13,-12.53,-12.65,0,*60
1488945820.3,52332,8.19,73212.8,-10.09,-12.43,-12.61,0,*6D
1488945821.54,52333,8.13,73212.3,-10.09,-12.43,-12.61,0,*6C
1488945822.8,52334,8.13,73214.0,-10.13,-12.47,-12.61,0,*64
1488945824.06,52335,8.13,73212.5,-10.13,-12.47,-12.65,0,*61
1488945825.33,52336,8.13,73210.0,-10.13,-12.39,-12.61,0,*6F
1488945826.61,52337,8.13,73212.0,-10.13,-12.53,-12.65,0,*66
1488945827.85,52338,8.13,73208.5,-10.09,-12.43,-12.57,0,*62
1488945829.12,52339,8.13,73210.5,-10.09,-12.35,-12.57,0,*62
1488945830.39,52340,8.13,73214.0,-10.07,-12.43,-12.61,0,*66
1488945831.65,52341,8.13,73212.3,-10.09,-12.35,-12.61,0,*68
1488945832.9,52342,8.13,73210.5,-10.09,-12.43,-12.57,0,*6F
1488945834.14,52343,8.13,73210.8,-10.09,-12.43,-12.61,0,*6B
1488945835.38,52344,8.13,73212.8,-10.09,-12.47,-12.61,0,*68
1488945836.62,52345,8.19,73214.8,-10.09,-12.47,-12.61,0,*69
1488945837.86,52346,8.13,73208.3,-10.09,-12.43,-12.61,0,*6E
1488945839.11,52347,8.19,73214.3,-10.09,-12.43,-12.61,0,*6F
1488945840.35,52348,8.13,73210.8,-10.09,-12.43,-12.61,0,*60
1488945841.59,52349,8.19,73214.5,-10.09,-12.43,-12.61,0,*61
1488945842.83,52350,8.13,73208.8,-10.09,-12.47,-12.61,0,*6D
1488945844.07,52351,8.19,73212.8,-10.09,-12.47,-12.61,0,*6C
1488945845.32,52352,8.13,73212.5,-10.09,-12.47,-12.71,0,*6E
1488945846.57,52353,8.19,73214.8,-10.09,-12.43,-12.71,0,*6B
1488945847.82,52354,8.19,73214.3,-10.09,-12.43,-12.71,0,*6C
1488945849.07,52355,8.13,73210.0,-10.09,-12.43,-12.71,0,*6D
1488945850.33,52356,8.13,73214.5,-10.07,-12.47,-12.61,0,*65
1488945851.58,52357,8.19,73214.8,-10.09,-12.47,-12.61,0,*6A
1488945852.82,52358,8.19,73214.3,-10.09,-12.47,-12.61,0,*65
1488945854.06,52359,8.13,73208.5,-10.09,-12.47,-12.61,0,*64
1488945855.31,52360,8.13,73212.8,-10.09,-12.47,-12.61,0,*6E
1488945856.56,52361,8.13,73210.8,-10.09,-12.47,-12.71,0,*6E
1488945857.85,52362,8.13,73212.8,-10.07,-12.57,-12.71,0,*62
1488945859.12,52363,8.13,73210.0,-10.09,-12.61,-12.75,0,*6C
1488945860.4,52364,8.13,73212.5,-10.09,-12.57,-12.71,0,*6A
1488945861.67,52365,8.13,73208.8,-10.09,-12.57,-12.75,0,*6F
1488945862.94,52366,8.19,73212.3,-10.09,-12.61,-12.75,0,*69
1488945864.21,52367,8.19,73212.0,-10.09,-12.57,-12.71,0,*69
1488945865.51,52368,8.13,73210.0,-10.07,-12.61,-12.71,0,*6D
1488945866.78,52369,8.13,73210.3,-10.09,-12.61,-12.71,0,*62
1488945868.05,52370,8.19,73212.0,-10.09,-12.61,-12.75,0,*6E
1488945869.32,52371,8.13,73208.8,-10.09,-12.61,-12.75,0,*6F
1488945870.59,52372,8.19,73212.8,-10.09,-12.61,-12.79,0,*60
1488945871.86,52373,8.19,73214.8,-10.09,-12.61,-12.75,0,*6D
1488945873.13,52374,8.13,73208.5,-10.09,-12.61,-12.75,0,*6A
1488945874.42,52375,8.13,73212.0,-10.07,-12.71,-12.75,0,*64
1488945875.69,52376,8.19,73212.5,-10.09,-12.71,-12.79,0,*65
1488945876.96,52377,8.13,73210.8,-10.09,-12.71,-12.79,0,*64
1488945878.21,52378,8.19,73214.8,-10.09,-12.71,-12.89,0,*64
1488945879.48,52379,8.13,73210.0,-10.09,-12.71,-12.79,0,*6A
1488945880.75,52380,8.13,73208.5,-10.07,-12.71,-12.89,0,*6D
1488945882.02,52381,8.19,73212.8,-10.07,-12.71,-12.89,0,*6C
1488945883.26,52382,8.13,73208.8,-10.09,-12.75,-12.89,0,*65
1488945884.51,52383,8.13,73212.3,-10.09,-12.71,-12.89,0,*60
1488945885.78,52384,8.19,73212.3,-10.09,-12.71,-12.79,0,*68
1488945887.03,52385,8.19,73214.0,-10.09,-12.71,-12.89,0,*66
1488945888.28,52386,8.13,73208.3,-10.09,-12.71,-12.89,0,*65
1488945889.55,52387,8.13,73214.3,-10.09,-12.75,-12.79,0,*6F
1488945890.8,52388,8.19,73214.3,-10.09,-12.75,-12.89,0,*6F
1488945892.05,52389,8.13,73212.5,-10.09,-12.79,-12.89,0,*62
1488945893.29,52390,8.13,73210.8,-10.09,-12.79,-12.89,0,*6A
1488945894.54,52391,8.13,73210.8,-10.09,-12.75,-12.89,0,*67
1488945895.79,52392,8.13,73212.8,-10.09,-12.79,-12.89,0,*68
1488945897.03,52393,8.13,73210.5,-10.09,-12.79,-12.93,0,*62
1488945898.25,52394,8.13,73210.3,-10.09,-12.89,-12.93,0,*6A
1488945899.5,52395,8.13,73210.0,-10.09,-12.79,-12.93,0,*64
1488945900.76,52396,8.13,73208.8,-10.09,-12.79,-13.01,0,*6D
1488945902.01,52397,8.19,73214.3,-10.09,-12.79,-12.93,0,*66
1488945903.23,52398,8.13,73214.5,-10.09,-12.89,-12.89,0,*6D
1488945904.48,52399,8.13,73212.8,-10.09,-12.79,-12.93,0,*68
1488945905.76,52400,8.13,73208.8,-10.07,-12.79,-13.01,0,*6B
1488945907.02,52401,8.13,73210.5,-10.09,-12.79,-13.01,0,*64
1488945908.29,52402,8.13,73210.0,-10.09,-12.79,-13.01,0,*67
1488945909.53,52403,8.13,73210.3,-10.09,-12.89,-13.01,0,*69
1488945910.79,52404,8.13,73210.0,-10.09,-12.79,-13.01,0,*61
1488945912.03,52405,8.13,73212.5,-10.13,-12.93,-13.07,0,*69
1488945913.27,52406,8.13,73208.8,-10.13,-12.93,-13.07,0,*6A
1488945914.52,52407,8.13,73208.8,-10.07,-12.89,-13.01,0,*63
1488945915.79,52408,8.13,73210.0,-10.09,-12.79,-13.01,0,*6D
1488945917.01,52409,8.13,73214.0,-10.09,-12.89,-12.93,0,*69
1488945918.25,52410,8.13,73214.3,-10.13,-12.93,-13.07,0,*6D
1488945919.49,52411,8.13,73212.3,-10.13,-12.93,-13.11,0,*6B
1488945920.7,52412,8.13,73206.3,-10.09,-12.89,-13.07,0,*6F
1488945921.94,52413,8.13,73208.0,-10.09,-12.93,-13.01,0,*63
1488945923.16,52414,8.13,73210.8,-10.09,-12.93,-13.07,0,*62
1488945924.38,52415,8.13,73208.8,-10.09,-12.93,-13.15,0,*60
1488945925.62,52416,8.13,73210.8,-10.09,-12.93,-13.01,0,*66
1488945926.86,52417,8.13,73212.8,-10.13,-13.07,-13.11,0,*61
1488945928.09,52418,8.13,73214.0,-10.15,-13.01,-13.15,0,*6A
1488945929.32,52419,8.13,73208.5,-10.13,-13.07,-13.11,0,*6F
1488945930.57,52420,8.13,73210.3,-10.13,-12.97,-13.11,0,*6D
1488945931.8,52421,8.13,73210.5,-10.13,-12.97,-13.11,0,*6C
1488945933.05,52422,8.13,73210.5,-10.13,-12.97,-13.19,0,*67
1488945934.27,52423,8.13,73212.0,-10.09,-12.93,-13.15,0,*65
1488945935.51,52424,8.13,73208.5,-10.09,-13.01,-13.07,0,*6B
1488945936.76,52425,8.13,73212.3,-10.13,-13.07,-13.19,0,*68
1488945938.0,52426,8.13,73210.3,-10.13,-13.07,-13.19,0,*6B
1488945939.24,52427,8.13,73214.0,-10.13,-13.07,-13.19,0,*6A
1488945940.49,52428,8.13,73210.8,-10.13,-13.07,-13.19,0,*65
1488945941.71,52429,8.13,73210.8,-10.15,-13.15,-13.29,0,*62
1488945942.95,52430,8.13,73214.0,-10.13,-13.11,-13.23,0,*62
1488945944.2,52431,8.13,73210.3,-10.13,-13.11,-13.19,0,*6A
1488945945.43,52432,8.13,73214.3,-10.13,-13.07,-13.23,0,*67
1488945946.67,52433,8.13,73214.3,-10.13,-13.11,-13.23,0,*61
1488945947.9,52434,8.13,73210.5,-10.09,-13.07,-13.19,0,*63
1488945949.11,52435,8.13,73210.3,-10.15,-13.23,-13.23,0,*60
1488945950.34,52436,8.13,73208.8,-10.15,-13.15,-13.37,0,*63
1488945951.57,52437,8.13,73210.5,-10.13,-13.11,-13.23,0,*65
1488945952.81,52438,8.13,73208.5,-10.13,-13.11,-13.23,0,*6A
1488945954.05,52439,8.13,73210.5,-10.13,-13.19,-13.23,0,*63
1488945955.32,52440,8.13,73210.3,-10.13,-13.19,-13.33,0,*6C
1488945956.55,52441,8.13,73208.3,-10.15,-13.15,-13.29,0,*6C
1488945957.79,52442,8.13,73212.5,-10.15,-13.23,-13.29,0,*6A
1488945959.05,52443,8.13,73210.5,-10.13,-13.11,-13.33,0,*67
1488945960.29,52444,8.13,73214.3,-10.13,-13.19,-13.23,0,*69
1488945961.53,52445,8.13,73210.3,-10.15,-13.23,-13.37,0,*62
1488945962.76,52446,8.13,73212.5,-10.15,-13.23,-13.37,0,*61
1488945963.99,52447,8.13,73212.8,-10.15,-13.15,-13.29,0,*6A
1488945965.25,52448,8.13,73208.0,-10.13,-13.23,-13.33,0,*6D
1488945966.49,52449,8.13,73208.5,-10.15,-13.29,-13.43,0,*67
1488945967.72,52450,8.13,73212.0,-10.15,-13.29,-13.43,0,*6F
1488945968.97,52451,8.13,73210.3,-10.15,-13.37,-13.37,0,*62
1488945970.24,52452,8.13,73214.0,-10.13,-13.23,-13.33,0,*66
1488945971.53,52453,8.13,73210.3,-10.13,-13.33,-13.33,0,*66
1488945972.76,52454,8.13,73210.3,-10.15,-13.29,-13.43,0,*6B
1488945974.03,52455,8.13,73208.0,-10.13,-13.23,-13.33,0,*61
1488945975.26,52456,8.13,73208.5,-10.15,-13.29,-13.43,0,*69
1488945976.49,52457,8.13,73210.3,-10.15,-13.37,-13.43,0,*67
1488945977.72,52458,8.13,73210.5,-10.15,-13.37,-13.51,0,*6B
1488945978.95,52459,8.13,73208.5,-10.15,-13.37,-13.43,0,*69
1488945980.19,52460,8.13,73210.8,-10.15,-13.43,-13.37,0,*63
1488945981.44,52461,8.13,73212.8,-10.15,-13.37,-13.37,0,*61
1488945982.65,52462,8.13,73210.0,-10.15,-13.43,-13.43,0,*62
1488945983.87,52463,8.13,73208.5,-10.15,-13.33,-13.47,0,*60
1488945985.11,52464,8.13,73210.3,-10.15,-13.37,-13.43,0,*67
1488945986.31,52465,8.13,73214.5,-10.15,-13.43,-13.51,0,*66
1488945987.52,52466,8.13,73210.0,-10.15,-13.43,-13.43,0,*66
1488945988.72,52467,8.13,73214.0,-10.15,-13.43,-13.43,0,*67
1488945989.93,52468,8.13,73210.8,-10.15,-13.43,-13.43,0,*68
1488945991.13,52469,8.13,73210.0,-10.15,-13.43,-13.43,0,*69
1488945992.34,52470,8.13,73210.0,-10.15,-13.43,-13.43,0,*61
1488945993.55,52471,8.13,73210.3,-10.15,-13.51,-13.43,0,*63
1488945994.75,52472,8.13,73210.5,-10.15,-13.43,-13.43,0,*63
1488945995.96,52473,8.13,73208.3,-10.15,-13.43,-13.43,0,*62
1488945997.18,52474,8.13,73210.8,-10.13,-13.47,-13.47,0,*63
1488945998.4,52475,8.13,73208.8,-10.15,-13.51,-13.43,0,*67
1488945999.61,52476,8.13,73212.3,-10.19,-13.51,-13.43,0,*68
1488946000.83,52477,8.13,73210.5,-10.19,-13.43,-13.51,0,*69
1488946002.04,52478,8.13,73210.5,-10.19,-13.43,-13.51,0,*66
1488946003.26,52479,8.13,73210.5,-10.19,-13.51,-13.51,0,*64
1488946004.49,52480,8.13,73214.8,-10.19,-13.51,-13.51,0,*62
1488946005.7,52481,8.13,73212.5,-10.19,-13.43,-13.51,0,*60
1488946006.92,52482,8.13,73208.3,-10.19,-13.51,-13.51,0,*60
1488946008.14,52483,8.13,73210.8,-10.19,-13.51,-13.51,0,*61
1488946009.36,52484,8.13,73212.3,-10.19,-13.51,-13.47,0,*61
1488946010.58,52485,8.13,73214.0,-10.19,-13.51,-13.51,0,*67
1488946011.8,52486,8.13,73208.5,-10.19,-13.51,-13.43,0,*67
1488946013.02,52487,8.13,73214.0,-10.19,-13.51,-13.51,0,*65
1488946014.25,52488,8.13,73208.8,-10.21,-13.55,-13.47,0,*62
1488946015.47,52489,8.13,73214.3,-10.19,-13.51,-13.43,0,*68
1488946016.7,52490,8.13,73212.8,-10.21,-13.55,-13.47,0,*6B
1488946017.97,52491,8.13,73210.5,-10.21,-13.61,-13.55,0,*6E
1488946019.23,52492,8.13,73210.5,-10.21,-13.61,-13.51,0,*69
1488946020.49,52493,8.13,73210.3,-10.21,-13.61,-13.55,0,*6C
1488946021.71,52494,8.13,73210.3,-10.19,-13.55,-13.51,0,*63
1488946022.93,52495,8.13,73210.0,-10.19,-13.55,-13.51,0,*62
1488946024.19,52496,8.13,73210.8,-10.21,-13.61,-13.55,0,*69
1488946025.41,52497,8.13,73210.8,-10.19,-13.55,-13.51,0,*60
1488946026.65,52498,8.13,73212.5,-10.19,-13.61,-13.55,0,*6C
1488946027.89,52499,8.13,73210.3,-10.21,-13.69,-13.55,0,*6E
1488946029.1,52500,8.13,73210.5,-10.19,-13.55,-13.55,0,*6B
1488946030.31,52501,8.13,73214.0,-10.19,-13.65,-13.55,0,*69
1488946031.6,52502,8.13,73212.5,-10.21,-13.61,-13.61,0,*62
1488946032.9,52503,8.13,73210.5,-10.21,-13.61,-13.61,0,*63
1488946034.19,52504,8.13,73210.3,-10.21,-13.61,-13.61,0,*64
1488946035.48,52505,8.13,73210.8,-10.21,-13.61,-13.61,0,*65
1488946036.77,52506,8.13,73212.0,-10.21,-13.61,-13.61,0,*66
1488946038.06,52507,8.13,73210.5,-10.21,-13.61,-13.61,0,*67
1488946039.35,52508,8.13,73212.5,-10.21,-13.61,-13.61,0,*68
1488946040.64,52509,8.13,73208.3,-10.21,-13.61,-13.61,0,*69
1488946041.93,52510,8.13,73210.5,-10.21,-13.61,-13.61,0,*61
1488946043.2,52511,8.13,73208.3,-10.21,-13.69,-13.61,0,*68
1488946044.47,52512,8.13,73210.0,-10.21,-13.69,-13.61,0,*6B
1488946045.7,52513,8.13,73210.8,-10.23,-13.69,-13.61,0,*68
1488946046.97,52514,8.13,73212.3,-10.23,-13.61,-13.61,0,*67
1488946048.23,52515,8.13,73210.0,-10.23,-13.61,-13.61,0,*66
1488946049.47,52516,8.13,73212.3,-10.23,-13.69,-13.61,0,*6D
1488946050.74,52517,8.13,73208.3,-10.21,-13.69,-13.61,0,*6E
1488946052.0,52518,8.13,73212.3,-10.21,-13.61,-13.69,0,*61
1488946053.29,52519,8.13,73214.5,-10.21,-13.61,-13.61,0,*68
1488946054.5,52520,8.13,73210.3,-10.23,-13.69,-13.69,0,*60
1488946055.73,52521,8.13,73212.3,-10.23,-13.69,-13.61,0,*69
1488946056.97,52522,8.13,73212.5,-10.23,-13.69,-13.61,0,*6A
1488946058.18,52523,8.13,73212.5,-10.23,-13.69,-13.69,0,*63
1488946059.44,52524,8.13,73208.3,-10.23,-13.61,-13.61,0,*64
1488946060.68,52525,8.13,73212.3,-10.25,-13.73,-13.65,0,*64
1488946061.91,52526,8.13,73212.8,-10.23,-13.61,-13.69,0,*6E
1488946063.15,52527,8.19,73214.8,-10.23,-13.69,-13.61,0,*6F
1488946064.42,52528,8.13,73210.0,-10.23,-13.61,-13.61,0,*68
1488946065.63,52529,8.13,73214.3,-10.23,-13.69,-13.65,0,*65
1488946066.87,52530,8.13,73214.0,-10.23,-13.69,-13.61,0,*69
1488946068.1,52531,8.13,73212.3,-10.25,-13.73,-13.65,0,*61
1488946069.34,52532,8.13,73212.0,-10.23,-13.69,-13.61,0,*6B
1488946070.6,52533,8.13,73212.5,-10.25,-13.79,-13.73,0,*6E
1488946071.87,52534,8.13,73210.5,-10.23,-13.61,-13.61,0,*65
1488946073.11,52535,8.13,73212.8,-10.25,-13.73,-13.65,0,*65
1488946074.34,52536,8.13,73208.5,-10.25,-13.73,-13.65,0,*66
1488946075.58,52537,8.13,73212.8,-10.25,-13.73,-13.65,0,*67
1488946076.82,52538,8.13,73214.3,-10.23,-13.73,-13.61,0,*6A
1488946078.09,52539,8.13,73208.3,-10.23,-13.83,-13.61,0,*64
1488946079.35,52540,8.13,73210.3,-10.25,-13.79,-13.65,0,*6D
1488946080.61,52541,8.13,73212.5,-10.25,-13.87,-13.65,0,*6D
1488946081.85,52542,8.13,73208.8,-10.23,-13.73,-13.61,0,*67
1488946083.09,52543,8.13,73212.8,-10.23,-13.73,-13.61,0,*66
1488946084.36,52544,8.13,73210.0,-10.23,-13.83,-13.61,0,*6E
1488946085.62,52545,8.13,73210.8,-10.25,-13.87,-13.65,0,*69
1488946086.89,52546,8.13,73214.3,-10.25,-13.73,-13.61,0,*65
1488946088.1,52547,8.13,73212.5,-10.23,-13.73,-13.55,0,*65
1488946089.36,52548,8.13,73210.5,-10.25,-13.65,-13.61,0,*6C
1488946090.63,52549,8.13,73212.0,-10.25,-13.73,-13.61,0,*6A
1488946091.9,52550,8.13,73212.3,-10.25,-13.73,-13.61,0,*62
1488946093.16,52551,8.13,73214.3,-10.25,-13.73,-13.61,0,*63
1488946094.37,52552,8.13,73208.5,-10.23,-13.69,-13.47,0,*69
1488946095.61,52553,8.13,73214.3,-10.25,-13.73,-13.51,0,*62
1488946096.85,52554,8.13,73210.8,-10.25,-13.73,-13.51,0,*65
1488946098.09,52555,8.13,73210.5,-10.25,-13.73,-13.51,0,*64